sat.trackr.live / text

‹ back to catalog

KUIPER-00290

NORAD 68592 · 2026-072V

PAYLOAD ACTIVE UNKNOWN

§ Identity

Operator
Country
US
Launch date
2026-04-04
Launch site
AFETR
Launch vehicle
Mass (kg)
RCS (m²)

External: N2YO · Heavens-Above · Gunter

§ Orbital elements

Epoch: 2026-09-19T02:38:25.641600Z

Period
97.30 min
Inclination
51.9010°
Eccentricity
0.0000744
Mean motion
14.79937780 rev/d
Perigee alt
629.0 km
Apogee alt
630.0 km
Semi-major
7,007.7 km
B*
-4.0840e-4
RAAN
122.8269°
Arg perigee
57.5446°
Mean anomaly
302.5588°
Rev number
2,527

§ Raw data

KUIPER-002901 68592U 26072V   26262.11001900 -.00003333  00000+0 -40840-3 0  99992 68592  51.9010 122.8269 0000744  57.5446 302.5588 14.79937780 25276

JSON: /api/v1/satellites/68592 · /tle

For live sub-satellite position, see the globe view (requires WebGL).

§ Visibility from observer

Set your observer location to see the next 7 days of passes ≥ 10°. The values pass through the URL so the page stays shareable.

No JS? Fill the form by hand. The geolocation button needs JavaScript.